Location: Limerick
(52.6800°N, 8.6400°W)
Time: 12:59:14
(UTC+01:00)

ISS - All Passes

Search period start: 21 October 2014 00:00
Search period end: 30 October 2014 23:00
Orbit: 413 x 416 km, 51.6° (Epoch: 20 October)

Date Brightness Start Highest point End Pass type
(mag) Time Alt. Az. Time Alt. Az. Time Alt. Az.
21 Oct - 16:01:13 10° SSW 16:04:09 29° SSE 16:07:06 10° E daylight
21 Oct - 17:37:14 10° WSW 17:40:34 69° S 17:43:54 10° E daylight
21 Oct - 19:13:52 10° W 19:17:11 65° S 19:20:31 10° ESE visible
21 Oct - 20:50:44 10° W 20:53:33 25° SSW 20:56:22 10° SSE visible
22 Oct - 15:12:42 10° SSW 15:15:16 21° SSE 15:17:52 10° E daylight
22 Oct - 16:48:16 10° WSW 16:51:33 59° SSE 16:54:52 10° E daylight
22 Oct - 18:24:49 10° W 18:28:10 73° S 18:31:31 10° ESE daylight
22 Oct - 20:01:34 10° W 20:04:39 34° SSW 20:07:43 10° SE visible
23 Oct - 14:24:27 10° S 14:26:24 15° SE 14:28:21 10° ESE daylight
23 Oct - 15:59:19 10° SW 16:02:32 47° SSE 16:05:47 10° E daylight
23 Oct - 17:35:45 10° W 17:39:06 76° S 17:42:27 10° E daylight
23 Oct - 19:12:26 10° W 19:15:39 45° SSW 19:18:52 10° SE visible
23 Oct - 20:49:58 10° WSW 20:51:46 14° SW 20:53:33 10° S visible
24 Oct - 15:10:25 10° SW 15:13:31 36° SSE 15:16:37 10° E daylight
24 Oct - 16:46:40 10° W 16:50:00 74° S 16:53:21 10° E daylight
24 Oct - 18:23:18 10° W 18:26:36 57° SSW 18:29:53 10° ESE daylight
24 Oct - 20:00:21 10° W 20:02:51 20° SW 20:05:21 10° SSE visible
25 Oct - 14:21:38 10° SSW 14:24:30 27° SSE 14:27:22 10° E daylight
25 Oct - 15:57:33 10° WSW 16:00:52 67° S 16:04:12 10° E daylight
25 Oct - 17:34:09 10° W 17:37:29 67° S 17:40:49 10° ESE daylight
25 Oct - 19:10:59 10° W 19:13:52 27° SSW 19:16:45 10° SSE visible
26 Oct - 12:33:02 10° SSW 12:35:29 19° SE 12:37:57 10° E daylight
26 Oct - 14:08:27 10° WSW 14:11:43 56° SSE 14:15:01 10° E daylight
26 Oct - 15:44:59 10° W 15:48:19 74° S 15:51:39 10° E daylight
26 Oct - 17:21:41 10° W 17:24:48 37° SSW 17:27:54 10° SE daylight
26 Oct - 19:00:30 10° SW 19:00:46 10° SW 19:01:03 10° SW visible
27 Oct - 11:44:47 10° S 11:46:29 13° SE 11:48:11 10° ESE daylight
27 Oct - 13:19:22 10° SW 13:22:34 44° SSE 13:25:46 10° E daylight
27 Oct - 14:55:46 10° W 14:59:06 76° S 15:02:27 10° E daylight
27 Oct - 16:32:26 10° W 16:35:40 48° SSW 16:38:54 10° SE daylight
27 Oct - 18:09:47 10° WSW 18:11:48 15° SW 18:13:48 10° S visible
28 Oct - 12:30:22 10° SW 12:33:24 33° SSE 12:36:28 10° E daylight
28 Oct - 14:06:32 10° WSW 14:09:52 72° S 14:13:12 10° E daylight
28 Oct - 15:43:09 10° W 15:46:28 60° SSW 15:49:45 10° ESE daylight
28 Oct - 17:20:07 10° W 17:22:44 21° SSW 17:25:21 10° SSE daylight
29 Oct - 11:41:29 10° SSW 11:44:15 24° SSE 11:47:02 10° E daylight
29 Oct - 13:17:17 10° WSW 13:20:35 64° SSE 13:23:54 10° E daylight
29 Oct - 14:53:52 10° W 14:57:12 69° S 15:00:31 10° ESE daylight
29 Oct - 16:30:38 10° W 16:33:36 29° SSW 16:36:32 10° SE daylight
30 Oct - 10:52:49 10° S 10:55:07 18° SE 10:57:25 10° E daylight
30 Oct - 12:28:03 10° WSW 12:31:18 53° SSE 12:34:34 10° E daylight
30 Oct - 14:04:33 10° W 14:07:53 75° S 14:11:13 10° E daylight
30 Oct - 15:41:14 10° W 15:44:23 39° SSW 15:47:31 10° SE daylight
30 Oct - 17:19:17 10° WSW 17:20:23 11° SW 17:21:29 10° SSW daylight
